{"data":{"norad_id":46912,"epoch":"2026-09-20T04:38:45.367296Z","epoch_age_seconds":40934,"freshness":"FRESH","line1":"1 46912U 20081H   26263.19358064  .00005930  00000+0  22033-3 0  9997","line2":"2 46912  36.8957 194.9262 0002034 338.5868  21.4796 15.27264644323700","mean_motion":15.27264644,"eccentricity":0.0002034,"inclination_deg":36.8957,"raan_deg":194.9262,"arg_perigee_deg":338.5868,"mean_anomaly_deg":21.4796,"bstar":0.00022033,"rev_number":32370,"period_min":94.286213306723,"perigee_km":482.59779047923,"apogee_km":485.38930518609,"semimajor_km":6862.1305478327,"source":"CELESTRAK","updated_at":"2026-09-20T09:00:14.801030Z"}}